Hourly Data Report for November 22, 2021

MIRAMICHI RCS
NEW BRUNSWICK
Current Station Operator: ECCC - MSC

47°00'34.000" N
65°27'54.000" W
33.00 m
8100989
71744
ACQ

Download Data

Hourly Data (November 2021)
Hourly Data Report for November 22, 2021
TIME
LST
Temp Definition
°C
Dew Point Definition
°C
Rel Hum Definition
%
Precip. Amount Definition
mm

Wind Dir Definition
10's deg

Wind Spd Definition
km/h
Visibility Definition
km
Stn Press Definition
kPa
Hmdx Definition


Wind Chill Definition


Weather Definition


00:00 -2.7 -3.5 95 0.0 4 2   101.82   -3 LegendNANA
01:00 -0.6 -1.4 94 0.0 7 8   101.67   -3 LegendNANA
02:00 0.8 0.0 95 0.0 7 9   101.54     LegendNANA
03:00 1.1 0.7 97 1.1 8 10   101.39     LegendNANA
04:00 4.1 3.8 98 1.6 14 13   101.24     LegendNANA
05:00 5.4 4.8 96 0.5 14 17   101.12     LegendNANA
06:00 6.6 5.9 95 0.0 15 15   101.02     LegendNANA
07:00 7.4 6.5 94 0.2 16 17   100.92     LegendNANA
08:00 7.2 6.5 95 0.5 26 12   100.88     LegendNANA
09:00 7.2 6.8 97 3.4 25 7   100.86     LegendNANA
10:00 8.9 8.1 95 3.5 16 16   100.77     LegendNANA
11:00 9.2 8.5 95 1.9 16 19   100.67     LegendNANA
12:00 9.6 8.7 94 1.6 16 16   100.49     LegendNANA
13:00 10.2 9.4 95 1.5 15 21   100.31     LegendNANA
14:00 10.8 9.7 93 2.7 15 24   100.12     LegendNANA
15:00 11.2 9.7 90 1.0 17 29   99.98     LegendNANA
16:00 10.6 9.1 90 1.1 19 26   100.07     LegendNANA
17:00 10.3 9.3 93 0.5 18 17   100.08     LegendNANA
18:00 9.8 9.0 94 0.5 18 17   100.08     LegendNANA
19:00 9.6 8.8 95 0.6 18 15   100.10     LegendNANA
20:00 9.4 8.8 96 1.1 18 13   100.10     LegendNANA
21:00 7.0 6.2 95 2.7 26 8   100.13     LegendNANA
22:00 5.7 3.4 85 0.5 29 11   100.13     LegendNANA
23:00 4.2 2.3 87 1.1 30 16   100.09     LegendNANA

Notes on Data Quality.

Legend

  • E = Estimated
  • M = Missing
  • NA = Not Available*
  • [empty] = Indicates an unobserved value
Date modified: